Regional Weather Roundup
Issued by NWS State College, PA

Home | Current Version | Previous Version | Graphics & Text | Print | Product List | Glossary Off
Versions: 1 2 3 4 5 6 7 8 9 10 11 12 13 14 15 16 17 18 19 20 21 22 23 24 25 26 27 28 29 30 31 32 33 34 35 36 37 38 39 40 41 42 43 44 45 46 47 48 49 50

000
ASUS41 KCTP 261403
RWRCTP

REGIONAL WEATHER ROUNDUP
NATIONAL WEATHER SERVICE STATE COLLEGE PA
1000 AM EDT SAT JUL 26 2014

Note: "fair" indicates few or no clouds below 12,000 feet with no
significant weather and/or obstructions to visibility.

* = STATION THAT DOES NOT REPORT PRECIPITATION /E.G. RAIN...SNOW...ETC/
    THUNDER OR FOG.

PAZ002>004-007>009-013>016-020>023-029>032-261500-
WESTERN PENNSYLVANIA

CITY           SKY/WX    TMP DP  RH WIND       PRES   REMARKS
ERIE           SUNNY     74  56  53 S10       29.96S
MEADVILLE      SUNNY     70  59  68 S5        29.99F
FRANKLIN*      MOSUNNY   68  57  68 S9        30.02S
NEW CASTLE       N/A     70  63  78 S3        30.00F
BEAVER COUNTY  SUNNY     70  63  78 S7        30.00F
BUTLER*        SUNNY     68  61  77 S6        30.03F
PITTSBURGH INT MOSUNNY   71  60  68 S7        30.00F
PITTSBURGH     SUNNY     71  58  63 S8        30.00F
INDIANA*       CLOUDY    68  59  73 SW5       30.07S
LATROBE        SUNNY     72  63  73 S7        30.03F
WASHINGTON CO* SUNNY     72  61  68 S6        30.01F
$$

PAZ004>006-010>012-017>019-024>028-033>037-041-042-045-046-049>053-261500-
CENTRAL PENNSYLVANIA

CITY           SKY/WX    TMP DP  RH WIND       PRES   REMARKS
BRADFORD       PTSUNNY   63  51  65 VRB3      30.03S
DUBOIS         CLOUDY    67  57  70 VRB3      30.02F
CLEARFIELD     CLOUDY    61  58  90 CALM      30.04F
JOHNSTOWN      CLOUDY    64  56  75 S6        30.05F
ALTOONA        MOSUNNY   69  58  67 CALM      30.05F
STATE COLLEGE  PTSUNNY   66  59  77 W3        30.03F
WILLIAMSPORT   CLOUDY    64  55  72 CALM      30.01S
SELINSGROVE    MOSUNNY   69  60  73 CALM      30.02F
FT INDIANTOWN  PTSUNNY   70  60  71 SW5       30.02F
CAPITAL CITY   PTSUNNY   68  60  75 CALM      30.01F
HARRISBURG     PTSUNNY   70  60  70 N5        30.01R
YORK           CLOUDY    67  63  87 NW6       30.02R
$$

PAZ038>040-043-044-047-048-054-055-060>062-067>071-261500-
EASTERN PENNSYLVANIA

CITY           SKY/WX    TMP DP  RH WIND       PRES   REMARKS
SCRANTON       CLOUDY    67  55  65 N3        30.01F
MOUNT POCONO   CLOUDY    64  56  75 W5        30.04F
ALLENTOWN      LGT RAIN  70  60  70 SW5       30.00F
QUAKERTOWN*    CLOUDY    68  63  83 S5        30.02F
READING        CLOUDY    71  61  70 CALM      30.00R
LANCASTER      CLOUDY    69  62  78 W6        30.02R
COATESVILLE    CLOUDY    66  64  94 E3        30.02F
POTTSTOWN      CLOUDY    67  63  87 CALM      30.03S
BLUE BELL      CLOUDY    68  66  94 SE6       29.99F
DOYLESTOWN     LGT RAIN  66  62  87 VRB3      29.99F
WILLOW GROVE   NOT AVBL
NORTH PHILA    RAIN      70  64  81 NW6       30.04R
PHILADELPHIA   LGT RAIN  71  64  78 N5        30.02R
$$


USA.gov is the U.S. government's official web portal to all federal, state and local government web resources and services.